Belmar-Farmingdale, NJ

4:00 AM EST on December 11, 2019 (GMT -0500)
Allaire

Weather History for KBLM - November, 2019

Change the Weather History Date:

Friday, November 15, 2019

  Actual Average Record
Temperature  
Mean Temperature 42 °F -  
Max Temperature 52 °F 51 °F 69 °F (2005)
Min Temperature 33 °F 36 °F 23 °F (1996)
Degree Days  
Heating Degree Days 22    
Moisture  
Dew Point 24 °F    
Average Humidity 52    
Maximum Humidity 78    
Minimum Humidity 34    
Precipitation  
Precipitation 0.00 in - - ()
Sea Level Pressure  
Sea Level Pressure 30.23 in    
Wind  
Wind Speed 6 mph ()    
Max Wind Speed 15 mph    
Max Gust Speed 20 mph    
Visibility 10.0 miles    
Events      
Averages and records for this station are not official NWS values.
T = Trace of Precipitation, MM = Missing Value Source: Averaged Metar Reports

Daily Weather History Graph

Daily Weather History Graph

Search for Another Location

Airport or City:

Astronomy

Nov. 15, 2019 Rise Set
Actual Time 6:41 AM EST 4:39 PM EST
Civil Twilight 6:12 AM EST 5:08 PM EST
Nautical Twilight 5:39 AM EST 5:41 PM EST
Astronomical Twilight 5:07 AM EST 6:13 PM EST
Moon 7:12 PM EST (11/15) 9:35 AM EST (11/15)
Length of Visible Light 10h 56m
Length of Day
9h 58m
Waning Gibbous, 90% of the Moon is Illuminated
Nov 15
Waning Gibbous
Nov 19
Last Quarter
Nov 26
New
Dec 4
First Quarter
Dec 12
Full

Hourly Weather History & Observations

Time (EST) Temp. Windchill Dew Point Humidity Pressure Visibility Wind Dir Wind Speed Gust Speed Precip Events Conditions
12:56 AM 33.1 °F 28.7 °F 27.0 °F 78% 30.30 in 10.0 mi WSW 4.6 mph - N/A   Clear
1:56 AM 33.1 °F 28.7 °F 27.0 °F 78% 30.29 in 10.0 mi West 4.6 mph - N/A   Mostly Cloudy
2:56 AM 35.1 °F 29.3 °F 27.0 °F 72% 30.27 in 10.0 mi West 6.9 mph - N/A   Overcast
3:56 AM 35.1 °F 30.1 °F 26.1 °F 70% 30.27 in 10.0 mi West 5.8 mph - N/A   Partly Cloudy
4:56 AM 35.1 °F 31.0 °F 26.1 °F 70% 30.27 in 10.0 mi West 4.6 mph - N/A   Overcast
5:56 AM 36.0 °F 31.1 °F 25.0 °F 64% 30.27 in 10.0 mi West 5.8 mph - N/A   Overcast
6:56 AM 36.0 °F 33.3 °F 25.0 °F 64% 30.28 in 10.0 mi WSW 3.5 mph - N/A   Overcast
7:56 AM 37.0 °F 34.5 °F 25.0 °F 62% 30.28 in 10.0 mi West 3.5 mph - N/A   Overcast
8:56 AM 39.9 °F 36.7 °F 23.0 °F 51% 30.28 in 10.0 mi West 4.6 mph - N/A   Mostly Cloudy
9:56 AM 45.0 °F 42.6 °F 23.0 °F 42% 30.27 in 10.0 mi WSW 4.6 mph - N/A   Overcast
10:56 AM 48.9 °F - 21.9 °F 35% 30.24 in 10.0 mi WNW 15.0 mph 19.6 mph N/A   Clear
11:56 AM 50.0 °F - 23.0 °F 35% 30.21 in 10.0 mi WSW 10.4 mph - N/A   Clear
12:56 PM 51.1 °F - 24.1 °F 35% 30.17 in 10.0 mi West 11.5 mph - N/A   Clear
1:56 PM 52.0 °F - 24.1 °F 34% 30.16 in 10.0 mi WSW 9.2 mph - N/A   Clear
2:56 PM 50.0 °F - 23.0 °F 35% 30.16 in 10.0 mi West 9.2 mph - N/A   Clear
3:56 PM 48.9 °F - 23.0 °F 36% 30.16 in 10.0 mi West 9.2 mph - N/A   Clear
4:56 PM 46.0 °F 43.9 °F 23.0 °F 40% 30.17 in 10.0 mi SW 4.6 mph - N/A   Clear
5:56 PM 44.1 °F 41.5 °F 23.0 °F 43% 30.19 in 10.0 mi WSW 4.6 mph - N/A   Clear
6:56 PM 42.1 °F 38.4 °F 23.0 °F 47% 30.17 in 10.0 mi WNW 5.8 mph - N/A   Clear
7:56 PM 41.0 °F 36.4 °F 23.0 °F 49% 30.19 in 10.0 mi West 6.9 mph - N/A   Clear
8:56 PM 39.9 °F 36.7 °F 23.0 °F 51% 30.21 in 10.0 mi West 4.6 mph - N/A   Clear
9:56 PM 39.9 °F 36.7 °F 23.0 °F 51% 30.22 in 10.0 mi WNW 4.6 mph - N/A   Clear
10:56 PM 42.1 °F 35.7 °F 27.0 °F 55% 30.24 in 10.0 mi NNW 11.5 mph - N/A   Clear
11:56 PM 39.9 °F 32.5 °F 28.0 °F 63% 30.23 in 10.0 mi NNW 12.7 mph - N/A   Clear